[[{"header":{"parameterUnit":"m.s-1","parameterCategory":1,"la1":30.2991,"la2":30.254,"lo1":-89.0895,"lo2":-89.0444,"dy":0.0017,"dx":0.0017,"nx":28,"ny":28,"refTime":"2025-05-27T21:00:00:Z","depth":0,"parameterNumber":2,"parameterNumberName":"U-component_of_WINDS"},"data":[0,0,0,0,0,0,0,0,0,0,0,0,0,0,0,0,0,0,0,0,0,0,0,0,0,0,0,0,0,0,0,0,0,0,0,0,0,0,0,0,0,0,0,0,0,0,0,0,0,0,0,0,0,0,0,0,0,0,2.4537,2.4541,0,2.4908,2.4912,2.4916,2.5046,2.5044,2.5043,2.5042,2.5412,2.5423,2.5434,0,0,0,0,0,0,0,0,0,0,0,0,0,2.3935,2.3945,2.4537,2.4542,2.4546,2.4907,2.4912,2.4917,2.5046,2.5044,2.5043,2.5041,2.5408,2.5421,2.5435,0,0,0,0,0,0,0,0,0,0,0,0,0,2.4239,2.3949,2.4536,2.4654,2.4669,2.4906,2.4912,2.4918,2.5046,2.5044,2.5042,2.504,2.5404,2.542,2.5436,2.558,0,0,2.5487,2.5495,0,0,0,0,0,0,0,0,2.4222,2.4261,2.4632,2.4647,2.4663,2.4929,2.4836,2.514,2.5047,2.4903,2.5042,2.5039,2.5252,2.5281,2.5355,2.5598,2.5614,2.5489,2.5499,2.5506,2.5511,0,0,0,0,0,0,0,2.4201,2.4246,2.4683,2.4638,2.4656,2.4687,2.4728,2.4894,2.5084,2.4915,2.4925,2.4968,2.526,2.5338,2.5364,2.5619,2.5488,2.5503,2.5514,2.552,2.6,2.6002,0,0,0,0,0,0,2.4161,2.4228,2.4672,2.4695,2.4433,2.4699,2.4745,2.4845,2.5083,2.5117,2.4969,2.4973,2.5311,2.5345,2.5378,2.5563,2.5506,2.5522,2.5531,2.5997,2.6,2.6003,0,0,0,0,0,0,2.4147,2.4199,2.4657,2.4464,2.4525,2.4712,2.4823,2.4854,2.4932,2.5124,2.5157,2.5015,2.5311,2.5354,2.553,2.5578,2.5529,2.5544,2.5994,2.5998,2.6002,2.5933,0,0,0,0,0,0,2.413,2.4194,2.4252,2.4465,2.4535,2.4805,2.4826,2.4862,2.4962,2.497,2.5175,2.5207,2.5312,2.5504,2.5547,2.56,2.5557,2.599,2.5996,2.6001,2.5932,2.5934,2.5936,0,0,0,0,0,2.4108,2.4215,2.4254,2.4307,2.4612,2.4807,2.4847,2.4968,2.4965,2.5024,2.5147,2.5201,2.5566,2.5521,2.557,2.5628,2.5988,2.5994,2.6,2.5931,2.5934,2.5936,0,0,0,0,0,0,2.4,2.4245,2.4291,2.4471,2.4618,2.4829,2.4907,2.4967,2.5115,2.5115,2.5257,2.5302,2.5466,2.5565,2.5511,2.5781,2.578,2.5796,2.571,2.5715,2.5717,2.5689,2.5571,0,0,0,0,0,2.3997,2.4138,2.4344,2.4483,2.4555,2.4718,2.4808,2.4889,2.5045,2.5106,2.5242,2.5389,2.5538,2.5632,2.5778,2.5947,2.5994,2.6012,2.6014,2.6015,2.6026,2.6124,2.6134,2.6024,2.6024,2.6023,0,0,2.3993,2.4145,2.4224,2.4466,2.4589,2.4729,2.4769,2.4916,2.5021,2.5128,2.5303,2.5408,2.5581,2.5754,2.5837,2.5841,2.6068,2.6022,2.6022,2.6034,2.6131,2.6141,2.615,2.6028,2.6027,2.6026,0,0,2.4057,2.4186,2.4317,2.4441,2.4628,2.4736,2.4767,2.497,2.5045,2.5224,2.5307,2.5433,2.5685,2.5806,2.59,2.6012,2.6066,2.6055,2.6066,2.6159,2.6168,2.6176,2.6216,2.6229,2.6067,2.6066,2.6066,0,2.4027,2.4245,2.4376,2.452,2.4623,2.473,2.4863,2.4975,2.5198,2.5266,2.5269,2.5589,2.5713,2.5916,2.5944,2.6017,2.6055,2.6032,2.6157,2.6166,2.6176,2.6216,2.623,2.6064,2.6064,2.6065,2.6065,0,2.4199,2.4348,2.4431,2.4649,2.4762,2.4898,2.5048,2.5146,2.5218,2.5325,2.5505,2.5659,2.5839,2.5893,2.5963,2.6107,2.6104,2.613,2.6131,2.6182,2.6221,2.6237,2.606,2.6061,2.6062,2.6063,0,0,2.4203,2.4494,2.4522,2.4623,2.4838,2.4955,2.5096,2.5276,2.5357,2.5508,2.5629,2.5841,2.5868,2.5974,2.6059,2.614,2.6219,2.6157,2.6163,2.6163,2.6387,2.6366,2.6381,2.6258,2.6261,2.6264,2.6372,0,2.4295,2.4556,2.4679,2.4884,2.5024,2.5129,2.5252,2.5396,2.55,2.5632,2.5746,2.5894,2.5918,2.5983,2.6069,2.6191,2.6266,2.6185,2.637,2.6375,2.6323,2.6402,2.638,2.6475,2.6389,2.6391,2.6393,0,2.4437,2.4591,2.4812,2.5012,2.5076,2.5184,2.536,2.5485,2.565,2.572,2.5841,2.5923,2.6074,2.6066,2.6275,2.6217,2.63,2.6372,2.6378,2.6399,2.6386,2.6424,2.6508,2.6522,2.6419,2.6417,2.6415,0,2.4417,2.468,2.4847,2.493,2.5168,2.5242,2.5344,2.5508,2.5608,2.5761,2.5827,2.5993,2.6084,2.621,2.6334,2.6317,2.6531,2.6533,2.6592,2.6589,2.6631,2.6627,2.6729,2.6685,2.6685,2.6685,2.6684,0,2.4507,2.4637,2.4842,2.4944,2.5093,2.5233,2.5376,2.5485,2.563,2.5754,2.5853,2.5967,2.6125,2.6257,2.6355,2.6513,2.6553,2.6613,2.6637,2.6604,2.6596,2.6659,2.6655,2.6689,2.6688,2.6687,2.6686,0,2.451,2.4652,2.4841,2.5052,2.5108,2.5209,2.5389,2.5491,2.5601,2.5756,2.58,2.5972,2.6134,2.6271,2.6482,2.6548,2.6712,2.6741,2.6657,2.667,2.6721,2.6714,2.6866,2.6893,2.6831,2.6831,2.6832,0,2.4557,2.466,2.4884,2.4976,2.5078,2.5223,2.5328,2.5469,2.5573,2.577,2.5848,2.6018,2.6161,2.6414,2.6556,2.6719,2.6752,2.6794,2.6777,2.674,2.6752,2.6744,2.6755,2.6794,2.6794,2.6794,2.6794,0,2.4625,2.4692,2.484,2.5013,2.5136,2.5278,2.5423,2.5492,2.5659,2.5771,2.594,2.6051,2.6269,2.6436,2.6614,2.6717,2.6783,2.6799,2.6822,2.6788,2.6735,2.6764,2.6659,2.6795,2.6795,2.6795,2.6795,2.6795,2.4652,2.475,2.4923,2.5085,2.521,2.5343,2.545,2.5576,2.572,2.5911,2.5984,2.6156,2.632,2.6567,2.667,2.6805,2.6814,2.6846,2.6854,2.686,2.6855,2.6714,2.6838,2.6838,2.6838,2.6838,2.6839,0,2.4726,2.4843,2.4991,2.5193,2.532,2.5375,2.5539,2.5641,2.5792,2.594,2.6081,2.6274,2.6437,2.6593,2.6763,2.6841,2.6876,2.6881,2.6876,2.6898,2.6837,2.6801,2.685,2.685,2.685,2.685,2.685,2.685,2.4779,2.4947,2.5034,2.5264,2.5381,2.5553,2.5641,2.5765,2.5884,2.6097,2.6234,2.6336,2.6488,2.667,2.6821,2.6863,2.692,2.6917,2.6966,2.6906,2.6903,2.69,2.6867,2.6929,2.6929,2.7017,2.7018,2.7018]},{"header":{"parameterUnit":"m.s-1","parameterCategory":1,"la1":30.2991,"la2":30.254,"lo1":-89.0895,"lo2":-89.0444,"dy":0.0017,"dx":0.0017,"nx":28,"ny":28,"refTime":"2025-05-27T21:00:00:Z","depth":0,"parameterNumber":3,"parameterNumberName":"V-component_of_WINDS"},"data":[0,0,0,0,0,0,0,0,0,0,0,0,0,0,0,0,0,0,0,0,0,0,0,0,0,0,0,0,0,0,0,0,0,0,0,0,0,0,0,0,0,0,0,0,0,0,0,0,0,0,0,0,0,0,0,0,0,0,3.0933,3.0934,0,3.0999,3.0999,3.1,3.1062,3.1063,3.1064,3.1065,3.1128,3.1129,3.113,0,0,0,0,0,0,0,0,0,0,0,0,0,3.0862,3.0863,3.0933,3.0934,3.0935,3.0999,3.0999,3.1,3.1062,3.1063,3.1064,3.1065,3.1128,3.1129,3.113,0,0,0,0,0,0,0,0,0,0,0,0,0,3.0907,3.0863,3.0933,3.0974,3.0978,3.0998,3.0999,3.1001,3.1062,3.1063,3.1064,3.1065,3.1127,3.1129,3.113,3.1115,0,0,3.1135,3.1135,0,0,0,0,0,0,0,0,3.0904,3.0909,3.0967,3.0971,3.0976,3.1024,3.0998,3.1039,3.1062,3.103,3.1065,3.1066,3.1092,3.1097,3.1106,3.1118,3.1121,3.1135,3.1136,3.1136,3.1137,0,0,0,0,0,0,0,3.0901,3.0907,3.0959,3.0968,3.0973,3.0988,3.0996,3.1006,3.1053,3.1033,3.1037,3.1044,3.1095,3.1105,3.1108,3.1122,3.1135,3.1136,3.1137,3.1137,3.1129,3.1128,0,0,0,0,0,0,3.0892,3.0904,3.0957,3.0961,3.0942,3.0989,3.0997,3.1007,3.1053,3.1062,3.1043,3.1047,3.1102,3.1106,3.111,3.1098,3.1136,3.1138,3.1138,3.113,3.1129,3.1128,0,0,0,0,0,0,3.089,3.0896,3.0954,3.0934,3.0942,3.0989,3.0999,3.1008,3.1017,3.1062,3.107,3.1045,3.1103,3.1108,3.1115,3.1101,3.1138,3.114,3.1132,3.113,3.1128,3.1072,0,0,0,0,0,0,3.0888,3.0895,3.0889,3.0933,3.0943,3.0957,3.0998,3.1008,3.102,3.1026,3.1065,3.1073,3.1104,3.1112,3.1116,3.1104,3.1141,3.1133,3.1131,3.1129,3.1075,3.1069,3.1063,0,0,0,0,0,3.0885,3.0869,3.0889,3.0895,3.0937,3.0956,3.0962,3.0999,3.1019,3.1014,3.1043,3.1071,3.1103,3.1112,3.1117,3.1105,3.1134,3.1131,3.1129,3.1078,3.107,3.1063,0,0,0,0,0,0,3.082,3.0876,3.0898,3.0896,3.0921,3.0967,3.0961,3.0989,3.1008,3.1012,3.1057,3.1066,3.1067,3.1087,3.1097,3.1095,3.1122,3.1121,3.1082,3.1075,3.1069,3.1063,3.1142,0,0,0,0,0,3.0806,3.0817,3.0865,3.0859,3.0871,3.0914,3.0923,3.095,3.0978,3.0988,3.1018,3.1043,3.1059,3.1068,3.1085,3.1079,3.109,3.1074,3.1068,3.1062,3.106,3.1062,3.1056,3.112,3.112,3.112,0,0,3.0776,3.0808,3.0811,3.0847,3.0869,3.088,3.0922,3.0931,3.094,3.0989,3.0998,3.1021,3.1052,3.1053,3.1055,3.107,3.1046,3.1059,3.1055,3.1056,3.1059,3.1053,3.1047,3.1118,3.1119,3.1119,0,0,3.0727,3.0752,3.0751,3.0774,3.0809,3.0839,3.0839,3.0881,3.0899,3.0909,3.0947,3.0959,3.0984,3.1006,3.102,3.0985,3.1013,3.0989,3.0957,3.0958,3.0953,3.0949,3.0938,3.0933,3.0987,3.0987,3.0987,0,3.0685,3.0703,3.0746,3.0754,3.0769,3.0818,3.0818,3.0838,3.0876,3.0885,3.0902,3.0938,3.0962,3.0971,3.0963,3.0972,3.0975,3.0984,3.095,3.0947,3.0943,3.0933,3.0929,3.0984,3.0985,3.0985,3.0985,0,3.0651,3.0663,3.0658,3.0697,3.0711,3.0715,3.0759,3.0769,3.0796,3.0825,3.0836,3.0867,3.0893,3.0897,3.0922,3.091,3.0919,3.0942,3.097,3.0933,3.0925,3.0921,3.098,3.0981,3.0982,3.0983,0,0,3.0559,3.0625,3.0622,3.0642,3.0686,3.0697,3.0704,3.0731,3.074,3.0766,3.0773,3.0797,3.082,3.0836,3.0865,3.0866,3.0839,3.089,3.0892,3.088,3.083,3.0812,3.0807,3.0859,3.0858,3.0858,3.0828,0,3.0518,3.0534,3.0576,3.0579,3.0593,3.0642,3.0648,3.0677,3.0705,3.072,3.0751,3.0767,3.0796,3.0807,3.081,3.0841,3.083,3.0844,3.0867,3.0867,3.0857,3.0802,3.0783,3.0753,3.0825,3.0824,3.0824,0,3.0471,3.0497,3.0503,3.0551,3.0558,3.0563,3.0593,3.0607,3.0642,3.0662,3.0683,3.0716,3.0728,3.0755,3.0772,3.0782,3.0794,3.0811,3.0811,3.0814,3.0843,3.0804,3.0744,3.074,3.0819,3.0819,3.082,0,3.0405,3.0441,3.0451,3.0466,3.0521,3.0524,3.0547,3.0583,3.0598,3.0625,3.0635,3.0662,3.0676,3.0697,3.0737,3.0753,3.0751,3.0781,3.0769,3.0768,3.0765,3.0765,3.0707,3.0773,3.0773,3.0773,3.0773,0,3.0355,3.0357,3.0423,3.0428,3.0432,3.0481,3.0484,3.0512,3.0544,3.0556,3.06,3.061,3.0663,3.068,3.0712,3.0723,3.0729,3.0746,3.0755,3.0742,3.074,3.075,3.0754,3.0772,3.0772,3.0772,3.0772,0,3.0281,3.0325,3.0339,3.0392,3.0406,3.0407,3.0452,3.046,3.0492,3.0508,3.0514,3.0564,3.0587,3.063,3.0664,3.0686,3.069,3.0704,3.0679,3.0684,3.067,3.0671,3.0616,3.0613,3.068,3.0679,3.0679,0,3.0246,3.025,3.0304,3.0317,3.0339,3.0358,3.0375,3.0423,3.0439,3.0481,3.0484,3.0511,3.0535,3.057,3.0609,3.0636,3.0652,3.0631,3.0656,3.0645,3.0653,3.0653,3.0654,3.0625,3.0624,3.0623,3.0623,0,3.018,3.0203,3.0225,3.0257,3.0276,3.0303,3.0332,3.0339,3.0395,3.0411,3.0436,3.0455,3.0492,3.0519,3.0553,3.0577,3.0609,3.0615,3.0614,3.0601,3.0587,3.0596,3.0664,3.0615,3.0616,3.0617,3.0617,3.0617,3.0125,3.0132,3.0173,3.0198,3.0225,3.0252,3.0264,3.0299,3.0321,3.0356,3.0384,3.0407,3.0445,3.0495,3.0518,3.0538,3.0553,3.055,3.055,3.0549,3.0545,3.0584,3.0544,3.0544,3.0544,3.0545,3.0545,0,3.0062,3.0092,3.0115,3.0156,3.0176,3.0207,3.0242,3.0257,3.0277,3.0311,3.0335,3.0366,3.0393,3.0436,3.0467,3.0475,3.0491,3.0482,3.0482,3.0487,3.0529,3.0527,3.0469,3.0469,3.0469,3.0469,3.0469,3.0469,3.0032,3.0046,3.0074,3.0103,3.0132,3.0157,3.0175,3.0201,3.0228,3.0261,3.0285,3.0314,3.0352,3.0387,3.0414,3.0426,3.0436,3.0422,3.0439,3.0477,3.0484,3.0491,3.0489,3.0424,3.0424,3.0396,3.0396,3.0396]}]]